Location: Bretagne
(43.8474°N, 0.4650°W)
Time: 06:01:11
(UTC+00:00)

BREEZE M DEB (TANK) - Pass Details

Date: 15 January 2026
Orbit: 294 x 13749 km, 49.5° (Epoch: 9 February)

Event Time Altitude Azimuth Distance (km) Brightness Sun altitude
Rises 18:16:27 0° 291° (WNW) 1,995 6.6 -15.3°
Reaches altitude 10° 18:17:55 10° 282° (WNW) 1,275 5.7 -15.5°
Maximum altitude 18:20:12 41° 208° (SSW) 674 3.6 -15.9°
Drops below altitude 10° 18:24:54 10° 137° (SE) 2,636 6.0 -16.7°
Sets 18:29:29 0° 132° (SE) 4,813 7.3 -17.6°
